Location: Campillo
(40.8621°N, 4.2488°W)
Time: 11:42:58
(UTC+00:00)

ATLAS 5 CENTAUR R/B - Pass Details

Date: 03 October 2021
Orbit: 509 x 1148 km, 63.4° (Epoch: 11 October)

Event Time Altitude Azimuth Distance (km) Brightness Sun altitude
Rises 04:29:33 0° 338° (NNW) 3,111 5.1 -20.8°
Reaches altitude 10° 04:34:27 10° 20° (NNE) 2,387 5.0 -19.9°
Maximum altitude 04:35:19 10° 29° (NNE) 2,398 5.1 -19.7°
Drops below altitude 10° 04:36:11 10° 38° (NE) 2,456 5.3 -19.5°
Sets 04:41:46 0° 78° (ENE) 3,609 7.2 -18.5°
